EW7239 Weather Reports


Display with metric or nautical units.
time (UTC)temp
F
wind
direction
speed
MPH
gust
MPH
rain 1hr
in
rain 24hr
in
rain mn
in
humidity
%
barometer
mb
20260902080345 65 236 1.0 4.0 0.00 0.00 0.00 79 1016.8
20260902075845 65 236 1.0 3.0 0.00 0.00 0.00 79 1016.6
20260902075616 65 236 2.0 5.0 0.00 0.00 0.00 79 1016.5
20260902074841 65 236 2.0 5.0 0.00 0.00 0.00 79 1016.5
20260902074355 65 236 1.0 4.0 0.00 0.00 0.00 78 1016.4
20260902073842 65 236 1.0 3.0 0.00 0.00 0.00 78 1016.3
20260902073342 66 236 1.0 3.0 0.00 0.00 0.00 78 1016.3
20260902072837 66 236 2.0 3.0 0.00 0.00 0.00 78 1016.3
20260902072337 66 236 2.0 3.0 0.00 0.00 0.00 77 1016.2
20260902071837 66 236 2.0 3.0 0.00 0.00 0.00 77 1016.2
20260902071338 66 236 2.0 5.0 0.00 0.00 0.00 77 1016.1
20260902070834 66 236 2.0 5.0 0.00 0.00 0.00 76 1016.1
20260902070604 66 236 2.0 4.0 0.00 0.00 0.00 76 1016.0
20260902065332 67 236 2.0 4.0 0.00 0.00 0.00 75 1016.1
20260902064830 67 236 3.0 5.0 0.00 0.00 0.00 75 1016.1
20260902064330 67 236 3.0 5.0 0.00 0.00 0.00 75 1016.0
20260902063831 67 236 3.0 5.0 0.00 0.00 0.00 74 1016.0
20260902063329 67 236 3.0 5.0 0.00 0.00 0.00 74 1016.0
20260902062828 67 236 3.0 5.0 0.00 0.00 0.00 73 1015.9
20260902062327 67 236 3.0 5.0 0.00 0.00 0.00 73 1015.9
20260902061827 67 236 3.0 5.0 0.00 0.00 0.00 73 1015.9
20260902060823 68 236 3.0 6.0 0.00 0.00 0.00 72 1015.9
20260902060320 68 236 3.0 4.0 0.00 0.00 0.00 72 1015.9
20260902060052 68 236 3.0 7.0 0.00 0.00 0.00 71 1015.9
20260902055319 68 236 2.0 7.0 0.00 0.00 0.00 71 1015.8
20260902054818 68 240 2.0 4.0 0.00 0.00 0.00 70 1015.9
20260902054318 68 240 2.0 4.0 0.00 0.00 0.00 70 1015.9
20260902053820 68 240 2.0 5.0 0.00 0.00 0.00 70 1015.7
20260902053318 69 240 2.0 5.0 0.00 0.00 0.00 70 1015.7
20260902052814 69 240 2.0 5.0 0.00 0.00 0.00 69 1015.8
20260902052314 69 240 3.0 5.0 0.00 0.00 0.00 69 1015.8
20260902052045 69 240 2.0 4.0 0.00 0.00 0.00 68 1015.8
20260902051310 69 240 2.0 3.0 0.00 0.00 0.00 68 1015.7
20260902050818 69 240 2.0 5.0 0.00 0.00 0.00 67 1015.8
20260902050541 70 240 2.0 5.0 0.00 0.00 0.00 67 1015.7
20260902045810 70 240 2.0 5.0 0.00 0.00 0.00 67 1015.6
20260902045310 70 240 3.0 6.0 0.00 0.00 0.00 66 1015.6
20260902044809 71 240 3.0 6.0 0.00 0.00 0.00 65 1015.6
20260902044539 71 240 3.0 7.0 0.00 0.00 0.00 65 1015.5
20260902043805 71 240 3.0 8.0 0.00 0.00 0.00 64 1015.4
20260902043304 71 238 3.0 8.0 0.00 0.00 0.00 64 1015.3
20260902042804 71 236 3.0 7.0 0.00 0.00 0.00 64 1015.3
20260902042535 71 236 3.0 7.0 0.00 0.00 0.00 64 1015.2
20260902041800 71 235 4.0 7.0 0.00 0.00 0.00 64 1015.1
20260902041531 72 235 4.0 10.0 0.00 0.00 0.00 64 1015.0
20260902040800 72 235 4.0 10.0 0.00 0.00 0.00 63 1014.9
20260902040307 72 234 4.0 8.0 0.00 0.00 0.00 63 1014.8
20260902035800 72 234 4.0 10.0 0.00 0.00 0.00 62 1014.8
20260902035300 73 234 4.0 10.0 0.00 0.00 0.00 62 1014.6
20260902035038 73 235 4.0 8.0 0.00 0.00 0.00 62 1014.6
20260902034532 73 240 4.0 8.0 0.00 0.00 0.00 61 1014.4
20260902033531 74 233 6.0 12.0 0.00 0.00 0.00 60 1014.2
20260902032306 74 221 6.0 10.0 0.00 0.00 0.00 59 1014.1
20260902031752 74 225 6.0 12.0 0.00 0.00 0.00 59 1014.1
20260902031251 74 225 6.0 12.0 0.00 0.00 0.00 59 1014.0
20260902030751 74 223 6.0 8.0 0.00 0.00 0.00 58 1014.0
20260902030522 74 229 6.0 9.0 0.00 0.00 0.00 57 1013.9
20260902025751 74 221 6.0 9.0 0.00 0.00 0.00 56 1013.9
20260902025250 75 223 6.0 9.0 0.00 0.00 0.00 55 1013.9
20260902024747 75 219 6.0 12.0 0.00 0.00 0.00 54 1013.9
20260902024247 76 214 6.0 13.0 0.00 0.00 0.00 53 1013.8
20260902023744 76 221 6.0 13.0 0.00 0.00 0.00 51 1013.7
20260902022743 77 221 6.0 12.0 0.00 0.00 0.00 46 1013.6
20260902022509 78 225 7.0 14.0 0.00 0.00 0.00 44 1013.6
20260902021740 78 219 8.0 14.0 0.00 0.00 0.00 42 1013.6
20260902021239 78 228 8.0 14.0 0.00 0.00 0.00 40 1013.6
20260902021011 79 217 7.0 14.0 0.00 0.00 0.00 37 1013.6
20260902020238 80 219 6.0 9.0 0.00 0.00 0.00 34 1013.6
20260902015740 80 212 6.0 10.0 0.00 0.00 0.00 32 1013.6
20260902015237 80 219 6.0 10.0 0.00 0.00 0.00 32 1013.5
20260902015008 81 227 6.0 11.0 0.00 0.00 0.00 32 1013.5
20260902014237 81 208 6.0 11.0 0.00 0.00 0.00 31 1013.5
20260902013738 81 221 7.0 11.0 0.00 0.00 0.00 31 1013.6
20260902013237 81 217 8.0 13.0 0.00 0.00 0.00 31 1013.5
20260902012737 82 214 8.0 13.0 0.00 0.00 0.00 31 1013.5
20260902012237 82 221 8.0 17.0 0.00 0.00 0.00 31 1013.5
20260902011737 82 234 8.0 17.0 0.00 0.00 0.00 30 1013.5
20260902011236 83 226 8.0 14.0 0.00 0.00 0.00 30 1013.5
20260902010738 83 220 8.0 15.0 0.00 0.00 0.00 30 1013.6
20260902010236 83 215 9.0 15.0 0.00 0.00 0.00 28 1013.6
20260902005738 83 219 8.0 15.0 0.00 0.00 0.00 28 1013.7
20260902005236 84 225 7.0 13.0 0.00 0.00 0.00 29 1013.7
20260902005007 84 223 8.0 14.0 0.00 0.00 0.00 29 1013.7
20260902004237 84 223 8.0 14.0 0.00 0.00 0.00 28 1013.8
20260902003737 85 234 7.0 13.0 0.00 0.00 0.00 28 1013.8
20260902003234 85 202 8.0 13.0 0.00 0.00 0.00 28 1013.8
20260902002735 85 192 8.0 14.0 0.00 0.00 0.00 28 1013.8
20260902002235 85 209 8.0 14.0 0.00 0.00 0.00 28 1013.8
20260902001735 85 219 8.0 14.0 0.00 0.00 0.00 28 1013.8
20260902001505 86 209 8.0 15.0 0.00 0.00 0.00 27 1013.8
20260902000735 86 214 8.0 15.0 0.00 0.00 0.00 27 1013.9
20260902000235 86 212 8.0 16.0 0.00 0.00 0.00 26 1013.8
20260901235735 87 211 8.0 16.0 0.00 0.00 0.00 25 1013.8
20260901235235 87 200 8.0 15.0 0.00 0.00 0.00 25 1013.8
20260901234736 87 219 8.0 15.0 0.00 0.00 0.00 25 1013.8
20260901234230 87 202 8.0 16.0 0.00 0.00 0.00 25 1013.7
20260901233743 88 215 7.0 16.0 0.00 0.00 0.00 25 1013.8
20260901233231 88 213 7.0 14.0 0.00 0.00 0.00 25 1013.7
20260901232730 88 232 8.0 15.0 0.00 0.00 0.00 25 1013.7
20260901232226 88 215 8.0 15.0 0.00 0.00 0.00 24 1013.8
20260901231727 89 211 7.0 14.0 0.00 0.00 0.00 24 1013.7
20260901231228 89 223 7.0 12.0 0.00 0.00 0.00 23 1013.8
20260901230726 89 225 7.0 14.0 0.00 0.00 0.00 24 1013.7
20260901230227 89 223 7.0 14.0 0.00 0.00 0.00 24 1013.7
20260901225726 88 224 8.0 14.0 0.00 0.00 0.00 25 1013.8
20260901225454 89 222 8.0 16.0 0.00 0.00 0.00 24 1013.8
20260901224723 88 213 9.0 16.0 0.00 0.00 0.00 25 1013.8
20260901224218 89 222 9.0 16.0 0.00 0.00 0.00 26 1013.8
20260901223720 89 224 8.0 16.0 0.00 0.00 0.00 27 1013.8
20260901223220 90 203 7.0 16.0 0.00 0.00 0.00 27 1013.9
20260901222718 89 209 8.0 14.0 0.00 0.00 0.00 29 1013.8
20260901222217 89 183 8.0 14.0 0.00 0.00 0.00 29 1013.8
20260901221716 90 285 8.0 17.0 0.00 0.00 0.00 29 1013.9
20260901221217 90 209 7.0 17.0 0.00 0.00 0.00 30 1013.9
20260901220716 90 212 7.0 15.0 0.00 0.00 0.00 29 1013.9
20260901220231 90 207 8.0 15.0 0.00 0.00 0.00 28 1014.0
20260901215717 90 215 8.0 17.0 0.00 0.00 0.00 29 1014.0
20260901215217 90 215 7.0 17.0 0.00 0.00 0.00 27 1014.1
20260901214712 91 238 6.0 12.0 0.00 0.00 0.00 26 1014.2
20260901214211 90 215 7.0 15.0 0.00 0.00 0.00 26 1014.1
20260901213943 90 220 8.0 15.0 0.00 0.00 0.00 26 1014.2
20260901213211 90 219 8.0 16.0 0.00 0.00 0.00 25 1014.1
20260901212711 90 224 8.0 16.0 0.00 0.00 0.00 24 1014.3
20260901212209 90 198 7.0 13.0 0.00 0.00 0.00 23 1014.3
20260901211706 91 219 7.0 13.0 0.00 0.00 0.00 21 1014.3
20260901211205 91 232 6.0 13.0 0.00 0.00 0.00 20 1014.4
20260901210704 91 221 5.0 13.0 0.00 0.00 0.00 19 1014.4
20260901210204 90 226 7.0 13.0 0.00 0.00 0.00 18 1014.4
20260901205704 90 228 8.0 14.0 0.00 0.00 0.00 18 1014.5
20260901205203 90 252 6.0 14.0 0.00 0.00 0.00 19 1014.4
20260901204703 90 224 6.0 14.0 0.00 0.00 0.00 20 1014.5
20260901203705 90 213 6.0 14.0 0.00 0.00 0.00 21 1014.5
20260901203434 91 224 5.0 14.0 0.00 0.00 0.00 20 1014.6
20260901202934 90 185 5.0 11.0 0.00 0.00 0.00 22 1014.7
20260901202203 90 225 5.0 9.0 0.00 0.00 0.00 23 1014.7
20260901201932 90 198 6.0 11.0 0.00 0.00 0.00 24 1014.8
20260901201200 90 216 5.0 11.0 0.00 0.00 0.00 25 1014.9
20260901200702 90 225 4.0 9.0 0.00 0.00 0.00 25 1015.0
20260901200200 89 221 4.0 12.0 0.00 0.00 0.00 25 1015.0
20260901195702 89 226 5.0 12.0 0.00 0.00 0.00 27 1015.2
20260901195428 88 231 4.0 10.0 0.00 0.00 0.00 30 1015.2
20260901194657 88 215 4.0 9.0 0.00 0.00 0.00 30 1015.3
20260901194157 87 216 4.0 9.0 0.00 0.00 0.00 31 1015.3
20260901193652 87 214 4.0 7.0 0.00 0.00 0.00 32 1015.3
20260901193151 87 234 3.0 7.0 0.00 0.00 0.00 31 1015.5
20260901192649 87 248 4.0 8.0 0.00 0.00 0.00 31 1015.6
20260901192421 86 244 3.0 8.0 0.00 0.00 0.00 31 1015.7
20260901191649 85 221 3.0 8.0 0.00 0.00 0.00 36 1015.7
20260901191149 85 223 4.0 8.0 0.00 0.00 0.00 34 1015.7
20260901190649 84 231 4.0 8.0 0.00 0.00 0.00 33 1015.8
20260901190149 85 231 5.0 8.0 0.00 0.00 0.00 32 1015.8
20260901185649 85 231 5.0 9.0 0.00 0.00 0.00 31 1015.8
20260901185148 85 257 5.0 9.0 0.00 0.00 0.00 34 1015.8
20260901184644 84 236 4.0 8.0 0.00 0.00 0.00 38 1015.9
20260901184148 84 217 4.0 8.0 0.00 0.00 0.00 37 1015.9
20260901183642 83 217 4.0 8.0 0.00 0.00 0.00 40 1016.0
20260901183141 82 225 4.0 7.0 0.00 0.00 0.00 42 1016.1
20260901182641 82 225 4.0 7.0 0.00 0.00 0.00 45 1016.2
20260901182138 82 215 4.0 6.0 0.00 0.00 0.00 46 1016.2
20260901181639 81 213 4.0 8.0 0.00 0.00 0.00 47 1016.2
20260901181140 81 214 3.0 8.0 0.00 0.00 0.00 44 1016.2
20260901180640 81 211 3.0 7.0 0.00 0.00 0.00 49 1016.2
20260901180139 81 232 2.0 8.0 0.00 0.00 0.00 51 1016.2
20260901175639 80 233 2.0 8.0 0.00 0.00 0.00 55 1016.3
20260901175139 79 223 2.0 5.0 0.00 0.00 0.00 55 1016.3
20260901174909 79 223 2.0 5.0 0.00 0.00 0.00 56 1016.3
20260901174136 79 223 3.0 6.0 0.00 0.00 0.00 57 1016.3
20260901173637 78 223 2.0 6.0 0.00 0.00 0.00 58 1016.3
20260901173138 78 223 1.0 4.0 0.00 0.00 0.00 59 1016.3
20260901172636 78 223 2.0 4.0 0.00 0.00 0.00 61 1016.3
20260901172137 77 223 2.0 5.0 0.00 0.00 0.00 62 1016.2
20260901171637 77 223 2.0 5.0 0.00 0.00 0.00 63 1016.2
20260901171137 77 223 2.0 5.0 0.00 0.00 0.00 64 1016.2
20260901170907 76 223 2.0 5.0 0.00 0.00 0.00 65 1016.2
20260901170140 76 223 1.0 4.0 0.00 0.00 0.00 68 1016.1
20260901165636 75 223 2.0 4.0 0.00 0.00 0.00 69 1016.2
20260901165138 74 223 2.0 3.0 0.00 0.00 0.00 71 1016.2
20260901164636 73 223 2.0 4.0 0.00 0.00 0.00 72 1016.2
20260901164137 73 223 2.0 4.0 0.00 0.00 0.00 73 1016.2
20260901163638 73 223 1.0 4.0 0.00 0.00 0.00 75 1016.2
20260901163136 72 223 0.0 1.0 0.00 0.00 0.00 77 1016.1
20260901162636 71 223 0.0 0.0 0.00 0.00 0.00 78 1016.1
20260901162136 71 223 0.0 0.0 0.00 0.00 0.00 79 1016.1
20260901161638 70 223 0.0 0.0 0.00 0.00 0.00 80 1016.0
20260901161136 70 223 0.0 0.0 0.00 0.00 0.00 81 1016.0
20260901160638 70 223 0.0 0.0 0.00 0.00 0.00 82 1016.1
20260901160136 69 223 1.0 4.0 0.00 0.00 0.00 83 1016.0
20260901155635 69 223 1.0 4.0 0.00 0.00 0.00 83 1016.0
20260901155407 69 223 0.0 2.0 0.00 0.00 0.00 84 1016.1
20260901154634 68 223 1.0 5.0 0.00 0.00 0.00 84 1016.1
20260901154132 68 223 1.0 5.0 0.00 0.00 0.00 84 1016.2
20260901153632 67 223 0.0 3.0 0.00 0.00 0.00 84 1016.1
20260901153401 67 223 0.0 3.0 0.00 0.00 0.00 84 1016.1
20260901152628 67 223 1.0 4.0 0.00 0.00 0.00 84 1016.0
20260901152140 66 223 1.0 4.0 0.00 0.00 0.00 84 1016.1
20260901151627 66 223 0.0 1.0 0.00 0.00 0.00 84 1016.1
20260901151128 66 223 0.0 3.0 0.00 0.00 0.00 84 1016.1
20260901150858 66 223 1.0 3.0 0.00 0.00 0.00 83 1016.0
20260901150125 66 223 2.0 5.0 0.00 0.00 0.00 83 1015.9
20260901145623 65 223 2.0 5.0 0.00 0.00 0.00 83 1016.0
20260901145354 65 223 2.0 5.0 0.00 0.00 0.00 84 1016.0
20260901144120 65 223 2.0 5.0 0.00 0.00 0.00 83 1016.0
20260901143619 65 223 2.0 5.0 0.00 0.00 0.00 83 1015.9
20260901143118 65 223 2.0 4.0 0.00 0.00 0.00 84 1015.9
20260901142619 65 223 1.0 4.0 0.00 0.00 0.00 84 1015.8
20260901142116 64 223 1.0 3.0 0.00 0.00 0.00 84 1015.6
20260901141618 64 223 1.0 3.0 0.00 0.00 0.00 84 1015.6
20260901141117 64 223 1.0 3.0 0.00 0.00 0.00 84 1015.5
20260901140617 64 223 1.0 3.0 0.00 0.00 0.00 84 1015.4
20260901140122 64 223 1.0 2.0 0.00 0.00 0.00 84 1015.3
20260901135613 64 223 1.0 2.0 0.00 0.00 0.00 85 1015.2
20260901135112 64 223 0.0 2.0 0.00 0.00 0.00 85 1015.2
20260901134614 64 223 0.0 2.0 0.00 0.00 0.00 84 1015.2
20260901134342 64 223 1.0 3.0 0.00 0.00 0.00 85 1015.1
20260901133608 64 223 1.0 3.0 0.00 0.00 0.00 85 1015.0
20260901133110 64 223 1.0 3.0 0.00 0.00 0.00 85 1014.9
20260901132608 64 223 1.0 3.0 0.00 0.00 0.00 85 1014.8
20260901132110 64 223 0.0 3.0 0.00 0.00 0.00 85 1014.8
20260901131850 64 223 0.0 0.0 0.00 0.00 0.00 85 1014.9
20260901131107 64 223 0.0 0.0 0.00 0.00 0.00 85 1014.8
20260901130605 64 223 0.0 0.0 0.00 0.00 0.00 85 1014.8
20260901130118 64 223 0.0 0.0 0.00 0.00 0.00 84 1014.7
20260901125603 64 223 0.0 0.0 0.00 0.00 0.00 84 1014.7
20260901125100 65 223 0.0 0.0 0.00 0.00 0.00 85 1014.7
20260901124601 64 223 0.0 0.0 0.00 0.00 0.00 84 1014.7
20260901124101 64 223 0.0 0.0 0.00 0.00 0.00 84 1014.7
20260901123557 65 223 0.0 0.0 0.00 0.00 0.00 85 1014.7
20260901123058 65 223 0.0 0.0 0.00 0.00 0.00 84 1014.7
20260901122554 65 223 0.0 0.0 0.00 0.00 0.00 84 1014.7
20260901122325 65 223 0.0 0.0 0.00 0.00 0.00 84 1014.7
20260901121553 65 223 0.0 2.0 0.00 0.00 0.00 84 1014.8
20260901121051 65 223 0.0 2.0 0.00 0.00 0.00 84 1014.7
20260901120821 65 223 0.0 2.0 0.00 0.00 0.00 84 1014.7
20260901120100 65 223 0.0 2.0 0.00 0.00 0.00 84 1014.8
20260901115546 65 223 0.0 2.0 0.00 0.00 0.00 84 1014.8
20260901115318 65 223 0.0 2.0 0.00 0.00 0.00 84 1014.9
20260901114547 65 223 0.0 3.0 0.00 0.00 0.00 84 1014.9
20260901113545 65 223 0.0 2.0 0.00 0.00 0.00 84 1014.9
20260901113045 65 223 1.0 3.0 0.00 0.00 0.00 84 1015.0
20260901112544 65 223 1.0 4.0 0.00 0.00 0.00 84 1015.0
20260901112041 65 223 2.0 4.0 0.00 0.00 0.00 83 1014.9
20260901111541 65 223 2.0 4.0 0.00 0.00 0.00 83 1015.0
20260901110536 65 223 1.0 4.0 0.00 0.00 0.00 83 1015.0
20260901110038 65 223 1.0 3.0 0.00 0.00 0.00 83 1015.0
20260901105534 65 223 0.0 3.0 0.00 0.00 0.00 83 1015.1
20260901105033 66 223 0.0 2.0 0.00 0.00 0.00 83 1015.0
20260901104533 66 223 1.0 3.0 0.00 0.00 0.00 83 1015.0
20260901104027 66 223 1.0 3.0 0.00 0.00 0.00 82 1014.9
20260901103525 66 223 1.0 2.0 0.00 0.00 0.00 83 1015.0
20260901103025 66 223 1.0 2.0 0.00 0.00 0.00 82 1014.9
20260901102524 66 223 0.0 2.0 0.00 0.00 0.00 82 1014.9
20260901102252 66 223 0.0 2.0 0.00 0.00 0.00 82 1014.9
20260901101521 66 223 0.0 2.0 0.00 0.00 0.00 82 1015.0
20260901101017 66 223 1.0 3.0 0.00 0.00 0.00 82 1014.8
20260901100531 66 223 1.0 3.0 0.00 0.00 0.00 82 1014.9
20260901100017 66 223 1.0 2.0 0.00 0.00 0.00 82 1015.1
20260901095516 66 223 0.0 2.0 0.00 0.00 0.00 81 1015.0
20260901095248 66 223 0.0 1.0 0.00 0.00 0.00 81 1015.0
20260901094517 66 223 0.0 1.0 0.00 0.00 0.00 81 1015.0
20260901094246 66 223 0.0 2.0 0.00 0.00 0.00 80 1015.0
20260901093514 66 223 0.0 2.0 0.00 0.00 0.00 81 1014.9
20260901093244 67 223 0.0 2.0 0.00 0.00 0.00 80 1014.9
20260901092512 67 223 0.0 2.0 0.00 0.00 0.00 80 1014.9
20260901092009 67 223 1.0 2.0 0.00 0.00 0.00 80 1014.9
20260901091509 67 223 1.0 4.0 0.00 0.00 0.00 80 1014.9
20260901091237 67 223 1.0 4.0 0.00 0.00 0.00 80 1014.9
20260901090506 67 223 1.0 4.0 0.00 0.00 0.00 80 1014.8
20260901090006 67 223 1.0 3.0 0.00 0.00 0.00 80 1014.8
20260901085505 67 223 1.0 3.0 0.00 0.00 0.00 79 1014.8
20260901085236 67 223 1.0 3.0 0.00 0.00 0.00 79 1014.8
20260901084503 67 223 1.0 3.0 0.00 0.00 0.00 79 1014.8
20260901084233 67 223 1.0 4.0 0.00 0.00 0.00 78 1014.9
20260901083503 67 223 1.0 4.0 0.00 0.00 0.00 78 1014.9
20260901083003 67 223 1.0 4.0 0.00 0.00 0.00 78 1014.9
20260901082503 68 223 1.0 4.0 0.00 0.00 0.00 78 1014.9
20260901082002 68 223 1.0 3.0 0.00 0.00 0.00 77 1014.8
20260901081458 68 223 1.0 3.0 0.00 0.00 0.00 77 1014.8
20260901081000 68 223 2.0 3.0 0.00 0.00 0.00 77 1014.8